Retour au catalogue

COSMOS 991

ActifNavigationPO
NORAD 10692·PAYLOAD·🇷🇺 Russia

Lancé Feb 28, 1978 depuis Plesetsk Cosmodrome

Loading…

Prochains Passages (prochaines 24 heures)

TLE

FraisSource: Space-Track

Époque: Sep 14, 2026, 05:28 UTC

1 10692U 78022A   26257.22834256  .00000062  00000-0  47239-4 0  9998
2 10692  82.9917 180.9652 0037522  40.8821 122.2322 13.76577589437623

Suivez COSMOS 991 en temps réel avec AllMySat

Download on the App Store